Hourly Data Report for October 16, 2014

All times are specified in Local Standard Time (LST). Add 1 hour to adjust for Daylight Saving Time where and when it is observed.

PENTICTON A
BRITISH COLUMBIA

49°27'45.000" N
119°36'08.000" W
344.40 m
1126146
71889
YYF

Download Data

Hourly Data (October 2014)
Hourly Data Report for October 16, 2014
Temp Definition
°C
Dew Point Temp Definition
°C
Rel Hum Definition
%
Wind Dir Definition
10's deg

Wind Spd Definition
km/h
Visibility Definition
km
Stn Press Definition
kPa
Hmdx Definition


Wind Chill Definition


Weather Definition


TIME
00:00 Legend Double Dagger 10.5 8.1 85 17 10 24.1 97.34     LegendNANA
01:00 Legend Double Dagger 10.0 7.8 86 14 13 24.1 97.42     Mainly Clear
02:00 Legend Double Dagger 9.4 7.5 88 16 12 24.1 97.49     LegendNANA
03:00 Legend Double Dagger 7.3 5.8 90 36 3 24.1 97.56     LegendNANA
04:00 Legend Double Dagger 6.4 5.4 93 1 8 24.1 97.61     Mainly Clear
05:00 Legend Double Dagger 8.7 7.0 89 16 14 24.1 97.64     LegendNANA
06:00 Legend Double Dagger 9.3 6.6 83 18 18 24.1 97.67     LegendNANA
07:00 Legend Double Dagger 9.4 6.3 81 18 19 24.1 97.72     Mostly Cloudy
08:00 Legend Double Dagger 9.3 6.4 82 16 18 24.1 97.75     LegendNANA
09:00 Legend Double Dagger 10.4 6.8 78 19 20 24.1 97.79     LegendNANA
10:00 Legend Double Dagger 10.9 6.5 74 19 23 24.1 97.82     Mostly Cloudy
11:00 Legend Double Dagger 11.5 6.3 70 17 18 24.1 97.86     LegendNANA
12:00 Legend Double Dagger 12.6 6.2 65 16 19 24.1 97.82     LegendNANA
13:00 Legend Double Dagger 13.0 5.7 61 16 24 24.1 97.79     Cloudy
14:00 Legend Double Dagger 13.5 6.2 61 18 17 24.1 97.73     LegendNANA
15:00 Legend Double Dagger 14.0 5.4 56 18 20 24.1 97.65     LegendNANA
16:00 Legend Double Dagger 13.9 6.1 59 17 18 24.1 97.62     Mainly Clear
17:00 Legend Double Dagger 12.4 5.6 63 18 13 24.1 97.63     LegendNANA
18:00 Legend Double Dagger 12.1 5.3 63 16 14 24.1 97.62     LegendNANA
19:00 Legend Double Dagger 11.1 5.9 70 13 7 24.1 97.60     Mostly Cloudy
20:00 Legend Double Dagger 11.3 6.3 71 14 11 24.1 97.61     LegendNANA
21:00 Legend Double Dagger 11.1 6.5 73 13 12 24.1 97.60     LegendNANA
22:00 Legend Double Dagger 11.3 6.1 70 13 8 24.1 97.55     Mostly Cloudy
23:00 Legend Double Dagger 11.4 6.2 70 15 11 24.1 97.51     LegendNANA

Notes on Data Quality.

Legend

  • E = Estimated
  • M = Missing
  • NA = Not Available
  • ‡ = Partner data that is not subject to review by the National Climate Archives
Date modified: